Regional Weather Roundup
Issued by NWS

Home | Current Version | Previous Version | Graphics & Text | Print | Product List | Glossary On
Versions: 1 2 3 4 5 6 7 8 9 10 11 12 13 14 15 16 17 18 19 20 21 22 23 24 25 26 27 28 29 30 31 32 33 34 35 36 37 38 39 40 41 42 43 44 45 46 47 48 49 50
585
ASUS44 KJAN 282003
RWRMS

MISSISSIPPI HOURLY WEATHER ROUNDUP
NATIONAL WEATHER SERVICE JACKSON MS
200 PM CST FRI NOV 28 2014

NOTE: "FAIR: INDICATES FEW OR NO CLOUDS BELOW 12,000 FEET WITH NO
SIGNIFICANT WEATHER AND/OR OBSTRUCTIONS TO VISIBILITY.

MSZ001>002-007>008-010>013-018>021-025>028-034>036-282100-
NORTHWEST MISSISSIPPI

CITY           SKY/WX    TMP DP  RH WIND       PRES   REMARKS
CLARKSDALE     FAIR      54  32  43 S14G20    30.24F
CLEVELAND      FAIR      54  37  52 S14       30.24F
GREENWOOD      SUNNY     59  23  25 S14       30.25F
GREENVILLE     SUNNY     57  31  37 S17       30.23F
GRENADA        FAIR      55  27  33 S9        30.26F
OLIVE BRANCH   SUNNY     52  28  40 S12G17    30.22F
OXFORD         FAIR      52  25  35 S7        30.26F
TUNICA         CLEAR     52  30  43 S14G20    30.23F
$$

MSZ003>006-009-014>017-022>024-029>033-037>039-282100-
NORTHEAST MISSISSIPPI

CITY           SKY/WX    TMP DP  RH WIND       PRES   REMARKS
COLUMBUS AFB   SUNNY     53  23  32 S9        30.30F
CORINTH        FAIR      52  27  37 SE13      30.25F
GOLDN TRIANGLE SUNNY     52  27  37 S9        30.30F
STARKVILLE     FAIR      52  28  40 SE9       30.28F
TUPELO         SUNNY     51  28  41 MISG      30.28F
$$

MSZ040-058-282100-
CENTRAL MISSISSIPPI

CITY           SKY/WX    TMP DP  RH WIND       PRES   REMARKS
JACKSON INTL   SUNNY     59  23  25 S9        30.28F
JACKSON HAWKNS SUNNY     59  23  25 S9        30.28F
MERIDIAN KEY   SUNNY     56  21  25 CALM      30.31F
MERIDIAN NAS   SUNNY     55  20  25 VRB5      30.32F
RAYMOND        FAIR      59  55  88 SE6       30.29F
VICKSBURG      SUNNY     61  25  25 S10       30.27F
$$

MSZ059>079-282100-
SOUTH MISSISSIPPI

CITY           SKY/WX    TMP DP  RH WIND       PRES   REMARKS
BROOKHAVEN     FAIR      59  28  31 S8        30.30F
HATTIESBURG    SUNNY     58  24  27 CALM      30.32F
MCCOMB         SUNNY     58  27  30 VRB5      30.30F
NATCHEZ        SUNNY     61  27  27 S9        30.28F
PINE BELT      SUNNY     57  25  28 CALM      30.32F
$$

MSZ080>082-282100-
COASTAL MISSISSIPPI

CITY           SKY/WX    TMP DP  RH WIND       PRES   REMARKS
BAY ST LOUIS   SUNNY     55  21  26 SE6       30.33F
BILOXI         SUNNY     55  36  49 S7        30.33F
PASCAGOULA     SUNNY     60  26  27 NE3       30.32F
GULFPORT       SUNNY     55  32  41 S7        30.33F
$$



USA.gov is the U.S. government's official web portal to all federal, state and local government web resources and services.